FW0058 Weather Reports


time (UTC)temp
C
wind
direction
speed
KPH
gust
KPH
rain 1hr
cm
rain 24hr
cm
rain mn
cm
humidity
%
barometer
mb
20260507083008 16 251 1.6 9.7 0.00 0.00 0.00 80 1016.4
20260507081505 16 274 0.0 8.0 0.00 0.00 0.00 79 1016.4
20260507080004 16 295 0.0 8.0 0.00 0.00 0.00 79 1016.4
20260507074505 16 261 0.0 9.7 0.00 0.00 0.00 79 1016.4
20260507073001 16 279 0.0 8.0 0.00 0.00 0.00 78 1016.4
20260507071530 16 273 1.6 6.4 0.00 0.00 0.00 77 1016.4
20260507070037 16 259 0.0 6.4 0.00 0.00 0.00 77 1016.5
20260507064526 16 261 3.2 6.4 0.00 0.00 0.00 76 1016.6
20260507063026 16 277 1.6 4.8 0.00 0.00 0.00 76 1016.7
20260507061525 17 255 0.0 6.4 0.00 0.00 0.00 75 1016.7
20260507060025 17 237 3.2 8.0 0.00 0.00 0.00 74 1016.7
20260507054522 17 329 0.0 8.0 0.00 0.00 0.00 73 1016.8
20260507053024 17 274 0.0 8.0 0.00 0.00 0.00 72 1016.7
20260507051522 17 288 1.6 11.3 0.00 0.00 0.00 72 1016.6
20260507050037 17 279 4.8 9.7 0.00 0.00 0.00 73 1016.5
20260507044519 17 240 0.0 8.0 0.00 0.00 0.00 75 1016.5
20260507043019 17 175 0.0 0.0 0.00 0.00 0.00 76 1016.4
20260507041518 17 186 0.0 6.4 0.00 0.00 0.00 76 1016.3
20260507040018 17 151 1.6 6.4 0.00 0.00 0.00 76 1016.2
20260507034520 17 142 1.6 8.0 0.00 0.00 0.00 75 1016.1
20260507033017 17 180 0.0 8.0 0.00 0.00 0.00 75 1015.9
20260507031515 17 161 0.0 8.0 0.00 0.00 0.00 74 1015.8
20260507030017 18 193 1.6 8.0 0.00 0.00 0.00 73 1015.6
20260507024514 18 148 4.8 11.3 0.00 0.00 0.00 72 1015.4
20260507023012 18 167 4.8 12.9 0.00 0.00 0.00 71 1015.3
20260507021511 18 146 3.2 14.5 0.00 0.00 0.00 70 1015.3
20260507020012 19 200 8.0 14.5 0.00 0.00 0.00 68 1015.2
20260507014509 20 212 8.0 16.1 0.00 0.00 0.00 66 1015.1
20260507013008 20 179 8.0 17.7 0.00 0.00 0.00 65 1015.0
20260507011508 20 152 8.0 17.7 0.00 0.00 0.00 64 1014.9
20260507010011 20 239 6.4 19.3 0.00 0.00 0.00 63 1014.9
20260507004505 21 155 9.7 17.7 0.00 0.00 0.00 61 1014.8
20260507003005 21 163 8.0 17.7 0.00 0.00 0.00 61 1014.8
20260507001505 21 200 8.0 17.7 0.00 0.00 0.00 59 1014.8
20260507000007 22 161 8.0 16.1 0.00 0.00 0.00 57 1014.7
20260506234501 22 186 8.0 19.3 0.00 0.00 0.00 58 1014.7
20260506233100 22 196 8.0 16.1 0.00 0.00 0.00 56 1014.7
20260506231559 22 229 8.0 16.1 0.00 0.00 0.00 55 1014.8
20260506230104 22 207 8.0 19.3 0.00 0.00 0.00 53 1014.9
20260506224555 23 261 4.8 16.1 0.00 0.00 0.00 51 1015.0
20260506223053 23 173 9.7 20.9 0.00 0.00 0.00 49 1015.2
20260506221601 23 163 6.4 19.3 0.00 0.00 0.00 47 1015.3
20260506220051 24 192 6.4 19.3 0.00 0.00 0.00 46 1015.4
20260506214547 23 141 4.8 16.1 0.00 0.00 0.00 48 1015.6
20260506213019 23 221 6.4 19.3 0.00 0.00 0.00 50 1015.8
20260506211530 23 188 11.3 22.5 0.00 0.00 0.00 49 1016.0
20260506210019 23 151 6.4 20.9 0.00 0.00 0.00 52 1016.1
20260506204516 23 192 6.4 20.9 0.00 0.00 0.00 54 1016.2
20260506203007 23 200 6.4 22.5 0.00 0.00 0.00 54 1016.3
20260506201507 23 188 6.4 17.7 0.00 0.00 0.00 55 1016.4
20260506200101 22 205 9.7 17.7 0.00 0.00 0.00 55 1016.6
20260506194558 23 217 9.7 17.7 0.00 0.00 0.00 55 1016.8
20260506193058 22 247 9.7 19.3 0.00 0.00 0.00 56 1016.9
20260506191601 22 190 3.2 14.5 0.00 0.00 0.00 58 1017.0
20260506190052 22 159 6.4 17.7 0.00 0.00 0.00 56 1017.2
20260506184548 22 136 1.6 12.9 0.00 0.00 0.00 58 1017.4
20260506183051 21 132 6.4 19.3 0.00 0.00 0.00 59 1017.5
20260506181601 22 143 3.2 11.3 0.00 0.00 0.00 59 1017.4
20260506180042 21 182 6.4 12.9 0.00 0.00 0.00 63 1017.6
20260506174540 20 217 3.2 14.5 0.00 0.00 0.00 63 1017.5
20260506173104 20 185 3.2 11.3 0.00 0.00 0.00 62 1017.6
20260506171542 20 140 4.8 12.9 0.00 0.00 0.00 63 1017.5
20260506170006 19 82 1.6 11.3 0.00 0.00 0.00 64 1017.6
20260506164504 18 90 4.8 11.3 0.00 0.00 0.00 66 1017.6
20260506163101 18 99 6.4 12.9 0.00 0.00 0.00 67 1017.6
20260506161558 18 64 4.8 12.9 0.00 0.00 0.00 68 1017.6
20260506160055 17 196 0.0 9.7 0.00 0.00 0.00 71 1017.7
20260506154609 17 30 3.2 8.0 0.00 0.00 0.00 71 1017.8
20260506153048 16 34 1.6 8.0 0.00 0.00 0.00 72 1017.8
20260506151545 16 167 0.0 3.2 0.00 0.00 0.00 73 1017.8
20260506150041 15 32 0.0 8.0 0.00 0.00 0.00 75 1017.8
20260506144544 15 76 1.6 8.0 0.00 0.00 0.00 75 1017.7
20260506143035 14 82 0.0 0.0 0.00 0.00 0.00 77 1017.7
20260506141534 13 51 0.0 8.0 0.00 0.00 0.00 78 1017.7
20260506140036 13 42 0.0 3.2 0.00 0.00 0.00 79 1017.5
20260506134532 13 19 0.0 0.0 0.00 0.00 0.00 80 1017.6
20260506133035 12 343 0.0 0.0 0.00 0.00 0.00 81 1017.4
20260506131526 12 35 0.0 0.0 0.00 0.00 0.00 82 1017.2
20260506130025 12 35 0.0 0.0 0.00 0.00 0.00 82 1017.0
20260506124524 12 39 0.0 0.0 0.00 0.00 0.00 82 1017.0
20260506123022 12 33 0.0 0.0 0.00 0.00 0.00 83 1016.8
20260506121521 12 43 0.0 0.0 0.00 0.00 0.00 83 1016.7
20260506120019 12 51 0.0 0.0 0.00 0.00 0.00 84 1016.7
20260506114521 13 67 0.0 0.0 0.00 0.00 0.00 84 1016.6
20260506113014 13 46 1.6 6.4 0.00 0.00 0.00 83 1016.6
20260506111514 13 44 0.0 0.0 0.00 0.00 0.00 83 1016.6
20260506110012 13 39 0.0 0.0 0.00 0.00 0.00 83 1016.5
20260506104532 13 39 0.0 0.0 0.00 0.00 0.00 82 1016.7
20260506103042 13 39 0.0 0.0 0.00 0.00 0.00 82 1016.6
20260506101547 13 57 0.0 3.2 0.00 0.00 0.00 82 1016.6
20260506100009 13 43 0.0 0.0 0.00 0.00 0.00 81 1016.6
20260506094508 13 54 3.2 8.0 0.00 0.00 0.00 81 1016.6
20260506093005 13 57 0.0 3.2 0.00 0.00 0.00 81 1016.6
20260506091504 13 54 1.6 6.4 0.00 0.00 0.00 81 1016.7
20260506090003 13 57 0.0 6.4 0.00 0.00 0.00 82 1016.8
20260506084600 13 44 0.0 3.2 0.00 0.00 0.00 83 1016.9